This is the latest recevied weather packets stored in our database for station/object WA4ORT. If no packets are shown the sender has not sent any weather packets the latest 10 day(s).
| Time | Temp. | Humidity | Pressure | Rain* | Wind** | Luminosity | Snow |
|---|---|---|---|---|---|---|---|
| 1787852653 | 29.44° C | - | - | 0 mm | 2.68 m/s, 314° | - | - |
| 1787851755 | 29.44° C | - | - | 0 mm | 2.24 m/s, 353° | - | - |
| 1787850861 | 28.89° C | - | - | 0 mm | 1.34 m/s, 249° | - | - |
| 1787849973 | 30° C | - | - | 0 mm | 0.89 m/s, 302° | - | - |
| 1787849069 | 28.89° C | - | - | 0 mm | 2.24 m/s, 276° | - | - |
| 1787848174 | 28.33° C | - | - | 0 mm | 1.79 m/s, 276° | - | - |
| 1787847280 | 28.33° C | - | - | 0 mm | 0.45 m/s, 228° | - | - |
| 1787846382 | 28.33° C | - | - | 0 mm | 0.45 m/s, 238° | - | - |
| 1787845487 | 28.33° C | - | - | 0 mm | 0.89 m/s, 226° | - | - |
| 1787844593 | 27.78° C | - | - | 0 mm | 1.79 m/s, 318° | - | - |
| 1787843695 | 27.78° C | - | - | 0 mm | 0.89 m/s, 239° | - | - |
| 1787842801 | 27.22° C | - | - | 0 mm | 1.34 m/s, 252° | - | - |
| 1787841908 | 26.67° C | - | - | 0 mm | 0.45 m/s, 188° | - | - |
| 1787841010 | 26.67° C | - | - | 0 mm | 0.45 m/s, 65° | - | - |
| 1787840115 | 26.11° C | - | - | 0 mm | 0.45 m/s, 101° | - | - |
| 1787839220 | 26.11° C | - | - | 0 mm | 0.89 m/s, 132° | - | - |
| 1787838404 | 25.56° C | - | - | 0 mm | 0.89 m/s, 167° | - | - |
| 1787838321 | 25.56° C | - | - | 0 mm | 0.89 m/s, 167° | - | - |
| 1787837428 | 25° C | - | - | 0 mm | 0 m/s | - | - |
| 1787836533 | 25° C | - | - | 0 mm | 1.34 m/s, 149° | - | - |
| 1787833847 | 24.44° C | - | - | 0 mm | 0 m/s | - | - |
| 1787832991 | 23.89° C | - | - | 0 mm | 0 m/s | - | - |
| 1787832949 | 23.89° C | - | - | 0 mm | 0 m/s | - | - |
| 1787832055 | 23.89° C | - | - | 0 mm | 0.89 m/s, 187° | - | - |
| 1787831221 | 23.33° C | - | - | 0 mm | 0 m/s | - | - |
* Rain latest hour (hover to see other rain measurements)
** Current wind speed in m/s (hover to see current wind gust speed)